Location: Arcones
(41.1182°N, 3.7238°W)
Time: 05:14:21
(UTC+00:00)

Cosmos 1244 Rocket - Pass Details

Date: 11 December 2025
Orbit: 952 x 997 km, 83.0° (Epoch: 13 January)

Event Time Altitude Azimuth Distance (km) Brightness Sun altitude
Rises 18:25:26 0° 356° (N) 3,697 7.4 -18.0°
Reaches altitude 10° 18:28:02 10° 1° (N) 2,738 6.7 -18.5°
Maximum altitude 18:34:11 57° 79° (E) 1,129 4.5 -19.6°
Drops below altitude 10° 18:40:15 10° 158° (SSE) 2,690 6.7 -20.7°
Sets 18:42:46 0° 162° (SSE) 3,627 7.4 -21.2°
